Saint Martin Island, Guadeloupe

2:02 PM AST on May 28, 2017 (GMT -0400)
Saint Martin Island

Weather History for 78866 - November, 2011

Change the Weather History Date:

Wednesday, November 9, 2011

  Actual Average Record
Temperature  
Mean Temperature 82 °F -  
Max Temperature 86 °F 83 °F - ()
Min Temperature 78 °F 74 °F - ()
Cooling Degree Days 17    
Growing Degree Days 32 (Base 50)    
Moisture  
Dew Point 75 °F    
Average Humidity 77    
Maximum Humidity 89    
Minimum Humidity 65    
Precipitation  
Precipitation 0.12 in 0.15 in - ()
Sea Level Pressure  
Sea Level Pressure 29.85 in    
Wind  
Wind Speed 10 mph ()    
Max Wind Speed 18 mph    
Max Gust Speed -    
Visibility 7.9 miles    
Events Rain    
T = Trace of Precipitation, MM = Missing Value Source: Averaged Metar Reports

Daily Weather History Graph

Daily Weather History Graph

Search for Another Location

Airport or City:

Trip Planner

Search our weather history database for the weather conditions in past years. The results will help you decide how hot, cold, wet, or windy it might be!

Date:

Astronomy

Nov. 09, 2011 Rise Set
Actual Time 6:15 AM AST 5:37 PM AST
Civil Twilight 5:52 AM AST 5:59 PM AST
Nautical Twilight 5:26 AM AST 6:25 PM AST
Astronomical Twilight 5:00 AM AST 6:51 PM AST
Moon 4:47 PM AST (11/9) 5:08 AM AST (11/9)
Length of Visible Light 12h 07m
Length of Day
11h 22m
Waxing Gibbous, 99% of the Moon is Illuminated
Nov 9
Waxing Gibbous
Nov 10
Full
Nov 18
Last Quarter
Nov 25
New
Dec 2
First Quarter

Hourly Weather History & Observations

Time (AST) Temp. Heat Index Dew Point Humidity Pressure Visibility Wind Dir Wind Speed Gust Speed Precip Events Conditions
12:00 AM 82.4 °F 89.5 °F 75.2 °F 79% 29.86 in 6.2 mi SE 11.5 mph - N/A   Scattered Clouds
1:00 AM 82.4 °F 89.5 °F 75.2 °F 79% 29.83 in 6.2 mi SE 15.0 mph - N/A   Mostly Cloudy
2:00 AM 82 °F - 74 °F 72% 29.81 in 16 mi SE 18.4 mph - -   Partly Cloudy
2:00 AM 82.4 °F 89.5 °F 75.2 °F 79% 29.80 in 6.2 mi SE 18.4 mph - N/A   Scattered Clouds
3:00 AM 82.4 °F 89.5 °F 75.2 °F 79% 29.80 in 6.2 mi SE 17.3 mph - N/A   Scattered Clouds
4:00 AM 82.4 °F 89.5 °F 75.2 °F 79% 29.80 in 6.2 mi SE 11.5 mph - N/A   Scattered Clouds
5:00 AM 82 °F - 75 °F 73% 29.82 in 16 mi SE 10.4 mph - -   Partly Cloudy
5:00 AM 82.4 °F 89.5 °F 75.2 °F 79% 29.80 in 6.2 mi SE 10.4 mph - N/A   Scattered Clouds
6:00 AM 82.4 °F 88.2 °F 73.4 °F 74% 29.80 in 6.2 mi SE 9.2 mph - N/A   Scattered Clouds
7:00 AM 82.4 °F 89.5 °F 75.2 °F 79% 29.83 in 6.2 mi SE 10.4 mph - N/A   Partly Cloudy
8:00 AM 83 °F - 75 °F 70% 29.87 in 16 mi SSE 9.2 mph - -   Partly Cloudy
8:00 AM 84.2 °F 92.3 °F 75.2 °F 74% 29.86 in 6.2 mi SE 9.2 mph - N/A   Scattered Clouds
9:00 AM 84.2 °F 92.3 °F 75.2 °F 74% 29.89 in 6.2 mi SE 8.1 mph - N/A   Scattered Clouds
10:00 AM 86.0 °F 95.1 °F 75.2 °F 70% 29.89 in - SE 10.4 mph - N/A   Partly Cloudy
11:00 AM 85 °F - 76 °F 67% 29.90 in 16 mi SSE 6.9 mph - -   Scattered Clouds
11:00 AM 86.0 °F 95.1 °F 75.2 °F 70% 29.89 in 6.2 mi SE 6.9 mph - N/A   Partly Cloudy
12:00 PM 86.0 °F 96.9 °F 77.0 °F 74% 29.86 in 6.2 mi SE 5.8 mph - N/A   Partly Cloudy
1:00 PM 84.2 °F 94.1 °F 77.0 °F 79% 29.83 in 6.2 mi SE 5.8 mph - N/A   Partly Cloudy
2:00 PM 85 °F - 75 °F 65% 29.85 in 9 mi 3.5 mph - -   Overcast
2:00 PM 84.2 °F 92.3 °F 75.2 °F 74% 29.83 in - North - - N/A   Scattered Clouds
2:17 PM 80.6 °F 86.2 °F 75.2 °F 84% 29.83 in 2.5 mi Variable 3.5 mph - N/A Rain Rain Showers
3:00 PM 82.4 °F 89.5 °F 75.2 °F 79% 29.83 in 6.2 mi East 4.6 mph - N/A   Scattered Clouds
3:22 PM 80.6 °F 86.2 °F 75.2 °F 84% 29.83 in 6.2 mi ENE 12.7 mph - N/A   Scattered Clouds
6:00 PM 80.6 °F 85.4 °F 73.4 °F 79% 29.86 in 6.2 mi NE 6.9 mph - N/A   Partly Cloudy
7:00 PM 80.6 °F 86.2 °F 75.2 °F 84% 29.86 in 6.2 mi ENE 10.4 mph - N/A   Scattered Clouds
8:00 PM 78 °F - 74 °F 85% 29.90 in 22 mi East 15.0 mph - - Rain Light Rain Showers
8:00 PM 78.8 °F - 75.2 °F 89% 29.89 in 6.2 mi East 15.0 mph - N/A   Mostly Cloudy
9:00 PM 78.8 °F - 73.4 °F 83% 29.89 in 6.2 mi ENE 11.5 mph - N/A   Mostly Cloudy
10:00 PM 78.8 °F - 73.4 °F 83% 29.89 in 6.2 mi East 13.8 mph - N/A Rain Light Rain Showers
11:00 PM 78 °F - 73 °F 79% 29.90 in 16 mi East 10.4 mph - - Rain Light Rain Showers
11:00 PM 78.8 °F - 73.4 °F 83% 29.89 in 6.2 mi East 10.4 mph - N/A   Scattered Clouds